Temp
16 16 15 15 15 15 15 14 14 14 14 14 14 13 13 13 13 13 12 12 12 12 12 12 13 13 13 13 14 14 14 13 13 13 12 12 11 11 12 11 11 11 11 11 10 10 10 9 9 9 9 8 8 8 8 7 7 7 7 7 7 7 7 7 6 6 6 6 6
16 16 15 15 15 14 14 14 14 14 14 14 14 13 13 13 13 13 12 12 12 12 12 12 12 13 13 13 14 14 13 13 13 12 12 11 11 11 11 11 11 11 11 10 10 10 9 9 9 9 8 8 8 8 8 7 7 7 7 7 7 7 6 6 6 6 6 6 6
16 15 15 14 14 14 14 14 14 14 14 14 14 13 13 13 13 13 13 12 12 12 12 12 12 13 13 13 13 13 13 13 13 12 12 11 11 11 11 11 11 11 11 10 10 9 9 9 9 8 8 8 8 8 7 7 7 7 7 7 7 6 6 6 6 6 6 6 6
15 15 15 14 14 14 14 14 14 13 13 13 13 13 13 13 13 13 13 12 12 12 12 13 13 13 13 13 13 13 13 13 13 12 12 11 11 11 11 11 11 11 10 10 10 9 9 9 8 8 8 8 8 8 7 7 7 7 7 6 6 6 6 6 6 6 6 5 5
15 15 14 14 14 14 14 14 13 13 13 13 13 13 13 13 13 13 12 12 12 12 12 13 13 13 13 13 13 13 13 13 12 12 12 11 11 11 11 11 10 10 10 10 10 9 9 8 8 8 8 8 8 7 7 7 7 7 7 6 6 6 6 6 5 5 5 5 5
15 14 14 14 14 14 13 13 13 13 13 13 13 13 13 13 13 12 12 12 12 12 12 13 13 13 13 13 13 13 13 13 12 12 11 11 11 11 10 10 10 10 10 9 9 9 9 8 8 8 8 7 7 7 7 7 7 7 6 6 6 6 6 5 5 5 5 5 5
14 14 14 13 13 13 13 13 13 13 13 13 13 13 13 13 12 12 12 12 12 12 12 12 13 13 13 13 13 13 13 12 12 12 11 11 11 10 10 10 10 9 9 9 9 9 8 8 8 8 7 7 7 7 7 7 6 6 6 6 6 6 6 5 5 5 5 5 5
14 14 13 13 13 13 13 13 13 13 13 13 13 13 13 12 12 12 12 12 12 12 12 12 13 13 13 13 13 13 13 12 12 11 11 11 10 10 10 10 9 9 9 9 9 8 8 8 8 7 7 7 7 7 7 6 6 6 6 6 6 6 5 5 5 5 4 4 4
13 13 13 13 13 13 13 13 13 13 13 13 13 13 13 12 12 12 12 12 12 12 12 12 13 13 13 13 13 13 12 12 12 11 11 10 10 10 10 9 9 9 9 9 8 8 8 8 7 7 7 7 7 7 6 6 6 6 6 6 5 5 5 5 5 5 4 4 4
13 13 13 13 13 13 13 13 13 13 13 13 13 13 12 12 12 12 12 12 12 12 12 13 13 13 13 13 12 12 12 12 11 11 11 10 10 10 9 9 9 9 9 8 8 8 8 7 7 7 7 7 7 6 6 6 6 6 5 5 5 5 5 5 5 5 4 4 4
13 13 13 13 13 13 13 13 13 13 13 13 13 12 12 12 12 12 12 12 12 12 12 12 13 12 12 12 12 12 12 12 11 11 10 10 10 9 9 9 9 9 8 8 8 8 7 7 7 7 7 7 6 6 6 6 6 5 5 5 5 5 5 5 5 4 4 4 4
13 13 12 12 12 12 13 13 13 13 12 12 12 12 12 12 12 12 12 12 12 12 12 12 12 12 12 12 12 12 11 11 11 10 10 10 10 9 9 9 9 8 8 8 8 7 7 7 7 7 7 6 6 6 6 6 5 5 5 5 5 5 4 4 4 4 4 4 4
13 12 12 12 12 12 12 12 12 12 12 12 12 12 12 12 12 12 12 12 12 12 12 12 12 12 12 12 11 11 11 11 10 10 10 10 9 9 9 9 8 8 8 8 7 7 7 7 7 7 6 6 6 6 6 6 5 5 5 5 5 4 4 4 4 4 4 4 3
12 12 12 12 12 12 12 12 12 12 12 12 12 12 12 12 12 12 11 12 12 11 11 12 12 11 11 11 11 11 11 11 10 10 10 9 9 9 9 8 8 8 8 8 7 7 7 7 7 6 6 6 6 6 6 5 5 5 5 5 5 4 4 4 4 4 4 3 3
12 12 12 12 12 12 12 12 12 12 12 12 12 12 12 12 11 11 11 11 11 11 11 11 11 11 11 11 11 11 11 10 10 10 9 9 9 9 8 8 8 8 8 7 7 7 7 7 6 6 6 6 6 6 6 5 5 5 5 5 4 4 4 4 4 4 3 3 3
12 12 12 12 12 12 12 12 12 12 12 12 12 12 11 11 11 11 11 11 11 11 11 11 11 11 10 10 10 10 10 10 10 10 9 9 9 9 8 8 8 8 8 7 7 7 7 6 6 6 6 6 6 6 5 5 5 5 5 4 4 4 4 4 4 3 3 3 3
12 12 12 11 11 12 12 12 12 12 12 11 11 11 11 11 11 11 11 11 11 11 11 11 11 10 10 10 10 10 10 10 10 9 9 9 9 8 8 8 8 8 7 7 7 7 7 6 6 6 6 5 5 5 5 5 5 5 5 4 4 4 4 4 3 3 3 3 2
12 12 12 11 11 11 12 12 12 11 11 11 11 11 11 11 11 11 11 11 10 10 10 10 10 10 10 10 10 10 10 10 9 9 9 9 9 8 8 8 8 7 7 7 7 7 7 6 6 6 5 5 5 5 5 5 5 5 5 4 4 4 4 3 3 3 3 2 2
12 12 11 11 11 11 11 11 11 11 11 11 11 11 11 11 11 11 11 10 10 10 10 10 10 10 10 10 10 10 10 10 10 9 9 9 9 8 8 8 8 7 7 7 7 7 7 6 6 6 5 5 5 5 5 5 5 4 4 4 4 4 3 3 3 3 3 3 2
12 12 11 11 11 11 11 11 11 11 11 11 11 11 10 10 10 10 10 10 10 10 10 10 10 10 10 10 10 10 10 10 10 9 9 9 9 8 8 8 7 7 7 7 7 7 7 6 6 6 5 5 5 5 5 4 4 4 4 4 3 3 3 3 3 3 3 3 2
12 11 11 11 11 11 11 11 11 11 11 11 10 10 10 10 10 10 10 10 10 10 10 10 10 10 9 9 9 9 9 9 9 9 9 8 8 8 8 8 7 7 7 7 7 7 7 6 6 6 6 5 5 5 5 4 4 4 3 3 3 3 3 3 3 3 3 2 2
11 11 11 11 11 11 11 11 11 11 11 10 10 10 10 10 10 10 10 10 10 10 10 9 9 9 9 9 9 9 9 9 9 9 9 8 8 8 8 7 7 7 7 7 7 7 6 6 6 6 6 6 5 5 5 4 4 3 3 3 3 3 3 3 3 3 2 2 2
11 11 11 10 11 11 11 10 10 10 10 10 10 10 10 10 10 9 9 9 10 10 9 9 9 9 9 9 9 9 9 9 9 9 8 8 8 8 7 7 7 7 7 7 7 6 6 6 6 6 6 6 5 5 5 4 4 3 3 3 3 3 3 3 3 3 3 2 2
11 10 10 10 10 10 10 10 10 10 10 10 10 9 9 9 9 9 9 9 9 9 9 9 9 9 9 9 9 9 9 8 8 8 8 8 8 7 7 7 7 7 7 6 6 6 6 6 6 6 6 6 5 5 4 4 3 3 3 3 2 2 3 3 3 3 2 2 2
10 10 10 10 10 10 10 10 10 10 10 9 9 9 9 9 9 9 9 9 9 9 9 9 9 9 9 9 9 9 8 8 8 8 8 7 7 7 7 7 6 6 6 6 6 6 6 6 6 5 5 5 5 4 4 3 3 2 2 2 2 2 2 2 2 2 2 2 2
10 10 10 10 10 10 10 10 10 9 9 9 9 9 9 9 9 9 9 9 9 9 9 9 9 9 9 9 8 8 8 8 8 8 7 7 7 7 7 6 6 6 6 6 6 6 6 5 5 5 5 4 4 4 3 2 2 2 2 2 2 2 2 2 2 2 2 2 2
10 10 10 10 10 10 9 9 9 9 9 9 9 9 9 9 9 9 9 9 9 9 9 9 9 9 8 8 8 8 8 8 8 8 7 7 7 7 6 6 6 6 6 6 6 6 5 5 5 5 4 4 3 3 3 2 3 3 3 3 3 3 3 3 3 3 3 3 3
9 9 9 9 9 9 9 9 9 9 9 9 8 9 9 9 9 9 9 9 9 9 9 9 8 8 8 8 8 8 8 8 8 8 7 7 7 7 6 6 6 6 6 6 6 5 5 5 5 5 4 4 3 3 3 3 3 3 3 3 3 3 3 3 3 3 3 3 3
9 9 9 9 9 9 9 9 9 8 8 8 8 8 8 9 9 9 9 9 9 9 8 8 8 8 8 8 8 8 8 8 7 7 7 7 7 6 6 6 6 6 6 6 5 5 5 5 5 5 4 4 3 3 3 3 3 3 3 3 3 3 3 3 3 3 3 3 3
8 8 8 8 8 8 8 8 8 8 8 8 8 8 8 9 9 9 9 9 8 8 8 8 8 8 8 8 8 8 8 7 7 7 7 6 6 6 6 6 6 6 6 5 5 5 5 5 5 5 4 4 3 3 3 3 3 3 3 3 3 3 3 3 3 3 3 3 3
8 8 8 8 8 8 8 8 8 8 8 8 8 8 9 9 9 9 9 9 8 8 8 8 8 8 8 8 8 7 7 7 7 7 6 6 6 6 6 6 6 5 5 5 5 5 5 5 5 4 4 4 3 3 3 3 3 3 3 3 3 3 3 3 3 3 3 3 3
7 7 7 7 8 8 8 8 8 8 8 8 8 8 9 9 9 9 9 8 8 8 8 8 8 8 8 7 7 7 7 7 7 6 6 6 6 6 6 5 5 5 5 5 5 5 5 5 4 4 4 4 3 3 3 3 3 3 3 3 3 3 3 3 3 3 3 3 3
7 7 7 7 7 8 8 8 8 8 8 8 8 9 9 9 9 9 8 8 8 8 8 8 8 7 7 7 7 7 7 7 7 6 6 6 6 5 5 5 5 5 5 5 5 5 4 4 4 4 4 3 3 3 3 2 3 3 3 3 3 3 3 3 3 3 3 3 3
6 7 7 7 7 7 7 7 8 8 8 8 8 9 9 9 8 8 8 8 8 8 8 8 8 7 7 7 7 7 7 7 6 6 6 6 5 5 5 5 5 5 5 5 5 4 4 4 4 4 4 3 3 3 2 2 2 3 3 3 3 3 3 3 3 3 3 3 3
6 7 7 7 7 7 7 7 7 8 8 8 8 8 8 8 8 8 8 8 8 8 8 8 8 7 7 7 7 7 6 6 6 6 6 6 5 5 5 5 5 5 5 5 4 4 4 4 4 4 3 3 3 3 2 2 2 3 3 3 3 3 3 3 3 3 3 3 3
7 7 7 7 7 7 7 7 8 8 8 8 8 8 8 8 8 8 8 8 8 8 8 7 7 7 7 7 7 6 6 6 6 6 6 5 5 5 5 5 5 5 5 5 5 4 4 4 4 4 3 3 3 2 2 2 2 3 3 3 3 3 3 3 3 3 3 3 3
7 7 8 8 8 7 8 8 8 8 8 8 8 8 8 8 8 8 8 8 7 7 7 7 7 7 6 6 6 6 6 6 5 5 5 5 5 5 5 5 5 5 5 5 5 4 4 4 4 4 3 3 3 2 2 2 2 3 3 3 3 3 3 3 3 3 3 3 3
8 8 8 8 8 8 8 8 8 8 8 8 8 8 8 8 8 8 7 7 7 7 7 7 6 6 6 6 6 6 5 5 5 5 5 5 5 5 5 5 5 5 5 5 5 4 4 4 4 4 3 3 3 2 2 2 2 2 2 3 3 3 3 3 3 3 3 3 2
8 8 8 8 8 8 8 8 8 8 8 8 8 8 8 8 7 7 7 7 7 7 6 6 6 6 6 6 5 5 5 5 5 5 5 5 5 5 5 5 5 5 5 5 4 4 4 4 4 3 3 3 3 2 2 2 2 2 2 2 2 2 2 2 2 2 2 2 2
8 8 9 8 8 8 8 8 8 8 8 8 8 8 7 7 7 7 7 7 6 6 6 6 6 6 5 5 5 5 5 5 5 5 5 5 5 5 5 5 5 4 4 4 4 4 4 4 3 3 3 3 2 2 2 2 2 2 2 2 2 2 2 2 2 2 2 2 2
8 8 8 8 8 8 8 8 8 8 8 8 8 7 7 7 7 6 6 6 6 6 5 5 5 5 5 5 5 5 5 5 5 5 5 5 5 5 5 4 4 4 4 4 4 4 4 3 3 3 3 3 2 2 2 2 2 2 2 2 2 2 2 2 2 2 2 2 2
Height
811 812 812 813 814 815 816 817 818 819 820 821 822 823 824 825 826 827 828 829 830 831 832 832 833 834 835 835 836 836 837 838 839 839 840 841 841 842 842 843 843 844 844 844 845 845 845 845 845 846 846 846 846 846 846 846 846 846 846 846 846 846 845 845 845 844 844 844 844
810 811 811 812 813 814 815 816 816 817 818 820 821 821 822 824 825 826 827 828 829 830 831 831 832 833 833 834 835 835 836 836 837 838 839 840 840 841 841 841 842 842 843 843 844 844 844 844 844 845 845 845 845 845 845 845 845 845 845 845 845 844 844 844 844 843 843 843 842
809 810 810 811 812 813 814 815 815 816 817 819 820 821 821 823 824 825 826 827 828 829 830 830 831 831 832 833 834 834 835 835 836 837 838 838 839 839 840 841 841 841 842 842 842 843 843 843 843 844 844 844 844 844 844 844 844 844 844 844 844 843 843 843 842 842 842 841 841
808 809 809 810 811 811 812 813 814 815 816 818 819 820 821 822 823 824 825 826 827 828 828 829 830 830 831 831 832 833 833 834 835 836 836 837 838 838 839 839 840 841 841 841 841 842 842 842 842 842 843 843 843 843 843 843 843 843 843 842 842 842 842 841 841 841 841 840 840
807 808 809 809 810 811 812 812 814 815 816 817 818 819 820 821 822 823 824 825 826 826 827 828 828 829 830 830 831 831 832 833 834 835 835 836 836 837 838 838 839 839 840 840 841 841 841 841 841 841 841 842 842 842 842 842 842 842 841 841 841 841 841 840 840 840 839 839 839
806 807 808 809 810 811 811 812 813 814 815 816 817 818 819 820 821 822 823 824 824 825 826 826 827 828 828 829 830 830 831 831 832 833 834 835 836 836 837 837 838 838 839 839 839 840 840 840 840 840 841 841 841 841 841 841 841 841 840 840 840 840 839 839 839 838 838 838 837
805 806 807 808 809 810 811 811 812 813 814 815 816 817 818 819 820 821 822 822 823 824 825 825 826 826 827 828 828 829 830 830 831 832 833 834 834 835 836 836 837 837 837 838 838 838 839 839 839 839 839 839 839 839 839 839 839 839 839 839 839 838 838 838 837 837 837 836 836
805 806 806 807 808 809 810 811 812 813 813 814 815 816 817 818 819 820 821 821 822 823 823 824 825 825 826 826 827 828 828 829 830 831 832 832 833 834 835 835 836 836 836 837 837 837 837 838 838 838 838 838 838 838 838 838 838 838 838 837 837 837 837 836 836 836 835 835 834
803 804 805 806 807 808 809 810 811 811 812 813 814 815 816 817 818 819 820 821 821 821 822 823 823 824 825 826 826 826 827 828 829 830 831 831 832 833 833 834 834 835 835 836 836 836 836 836 836 837 837 837 837 837 837 837 837 836 836 836 836 836 835 835 835 834 834 833 833
802 803 804 805 806 807 808 809 810 811 811 812 813 814 815 816 817 818 819 819 820 820 821 822 822 823 824 824 825 826 826 827 828 829 830 830 831 831 832 833 833 834 834 834 835 835 835 836 836 836 836 836 836 836 836 836 835 835 835 834 834 834 834 833 833 833 832 832 831
801 801 802 804 805 806 807 808 809 810 811 811 812 813 814 815 816 816 817 818 819 819 820 821 821 822 823 823 824 824 825 826 827 827 828 829 830 831 831 831 832 832 833 833 833 834 834 834 834 834 834 834 834 834 834 834 834 833 833 833 832 832 832 832 831 831 831 830 830
800 801 801 802 803 805 806 807 808 809 810 811 811 812 813 814 815 816 816 817 818 818 819 820 820 821 821 822 823 823 824 825 826 826 827 828 829 829 830 830 831 831 832 832 832 832 833 833 833 833 833 833 833 833 833 832 832 832 831 831 831 831 830 830 830 830 829 829 828
799 800 801 801 802 803 804 806 806 807 808 810 811 811 812 813 814 815 815 816 817 817 818 819 819 820 821 821 821 822 823 824 824 825 826 827 827 828 829 829 830 830 831 831 831 831 831 831 831 831 831 831 831 831 831 831 831 830 830 830 829 829 829 828 828 828 827 827 826
798 799 799 800 801 802 803 804 805 806 807 808 809 810 811 812 813 813 814 815 816 816 817 818 818 819 820 820 821 821 822 822 823 824 825 826 826 827 828 828 829 829 830 830 830 830 830 830 830 830 830 830 830 830 830 829 829 829 828 828 828 827 827 826 826 826 826 825 825
797 797 798 799 800 801 801 803 804 805 806 807 808 809 810 811 811 812 813 814 815 816 816 816 817 818 819 819 820 820 821 821 822 823 824 825 825 826 826 827 827 828 828 828 828 828 828 828 828 828 828 828 828 828 828 828 827 827 826 826 826 826 825 825 825 824 824 823 823
796 796 797 797 798 799 800 801 802 804 805 806 807 808 809 810 810 811 812 813 814 815 815 816 816 817 817 818 819 819 820 821 821 822 823 824 824 825 825 826 826 826 827 827 827 827 827 827 827 826 826 826 826 826 826 826 825 825 825 824 824 823 823 823 823 822 822 821 821
794 795 795 796 797 798 799 800 801 802 804 805 806 807 807 808 809 810 811 812 813 813 814 815 815 816 816 817 818 818 819 820 820 821 822 822 823 824 824 825 825 825 825 825 825 825 825 825 825 825 825 825 824 824 824 824 823 823 822 822 822 821 821 821 821 821 820 820 819
793 793 794 794 795 796 797 799 800 801 803 804 805 806 806 807 808 809 810 811 812 812 813 814 814 815 816 816 817 817 818 819 819 820 821 821 822 822 823 823 824 824 824 824 824 824 824 824 824 824 823 823 822 822 821 821 821 821 821 820 820 819 819 819 818 818 818 818 817
792 792 792 793 794 795 796 798 799 801 802 803 804 805 805 806 807 808 809 810 811 812 812 813 814 814 815 815 816 816 817 818 818 819 820 820 821 821 822 822 822 822 822 822 822 822 822 822 822 822 822 821 821 820 820 819 819 819 818 818 817 817 817 816 816 816 816 815 815
790 791 791 792 793 794 796 797 798 800 801 802 803 804 804 805 806 807 808 809 810 811 812 812 813 814 814 815 815 816 816 817 817 818 818 819 820 820 820 821 821 821 821 821 820 820 820 820 820 820 820 819 819 818 818 817 817 816 816 816 816 815 815 814 814 814 813 813 813
789 790 790 791 792 794 795 796 798 799 801 801 802 803 804 805 806 807 808 809 809 810 811 812 812 813 813 814 815 815 816 816 816 817 817 818 818 819 819 819 819 819 819 819 818 818 818 818 818 818 818 817 817 816 816 816 815 815 814 814 813 813 812 812 812 811 811 811 811
788 789 789 791 792 793 795 796 797 799 800 801 801 802 803 804 805 806 807 808 809 810 811 811 812 812 813 813 814 814 815 815 816 816 816 817 817 817 817 817 818 818 817 817 816 816 816 816 816 816 816 815 815 814 814 814 813 812 812 811 811 811 810 810 810 809 809 809 808
787 788 789 790 791 793 794 796 797 798 799 799 800 801 802 803 804 806 806 807 808 809 810 811 811 812 812 813 813 813 814 814 815 815 815 816 816 816 816 816 816 816 816 815 815 814 814 815 814 814 814 814 813 812 812 811 811 811 810 809 809 808 808 808 807 807 807 806 806
786 787 788 790 791 792 794 795 796 797 798 799 799 801 801 803 804 805 806 807 808 809 810 810 811 811 812 812 812 813 813 813 813 814 814 814 814 815 815 814 814 814 814 813 813 813 813 813 812 812 812 811 811 811 810 810 809 808 808 807 807 806 806 806 805 805 805 804 804
786 787 788 789 790 791 793 794 795 796 797 798 799 800 801 802 803 804 805 806 807 808 809 810 810 811 811 811 811 812 812 812 812 813 813 813 813 813 813 813 812 812 812 811 811 811 811 811 811 810 810 809 809 808 808 807 807 806 806 806 805 804 804 803 803 802 802 801 801
786 786 787 788 790 791 792 793 794 795 796 797 798 800 801 802 803 804 805 806 807 808 808 809 810 810 810 810 811 811 811 811 811 811 811 811 811 811 811 811 811 810 810 810 810 810 809 809 809 809 808 807 807 806 806 806 805 805 804 804 803 803 802 801 801 801 800 800 799
785 786 787 788 789 790 791 792 793 795 796 797 798 799 800 801 802 803 804 806 806 807 808 808 809 809 809 809 809 810 810 810 810 810 810 810 810 810 810 810 809 809 808 808 808 808 808 808 807 807 807 806 805 805 804 804 803 803 803 802 801 801 801 800 799 799 799 798 798
785 786 786 787 789 790 791 792 793 794 796 796 797 799 800 801 802 803 804 805 806 806 807 807 808 808 808 808 808 808 808 808 809 809 808 808 808 808 808 808 807 807 807 806 806 806 806 806 806 806 805 805 804 803 803 802 802 801 801 800 800 799 799 798 797 797 796 796 796
784 785 786 787 788 789 791 792 793 794 795 796 797 798 799 801 801 803 804 805 805 806 806 806 807 807 807 807 807 807 807 807 807 807 807 807 806 806 806 806 806 805 805 805 805 805 804 804 804 804 803 803 802 802 801 801 800 799 799 798 798 797 796 796 796 795 795 794 794
784 785 786 787 788 789 791 792 793 794 795 796 797 798 799 800 801 802 803 804 805 805 805 806 806 806 806 806 806 806 806 806 806 806 805 805 805 804 804 804 804 803 803 803 803 803 802 802 802 801 801 801 801 800 799 798 798 797 797 796 796 795 795 794 794 793 793 792 792
784 785 786 787 789 790 791 792 793 794 795 796 797 798 799 800 801 802 803 803 804 804 805 805 805 805 805 805 805 805 805 804 804 804 804 803 803 803 802 802 802 801 801 801 801 801 801 800 800 799 799 799 798 798 797 796 796 795 795 794 793 793 792 792 791 791 791 790 790
785 786 786 788 789 790 791 792 793 794 795 796 796 798 799 800 801 801 802 803 803 804 804 804 804 804 804 804 804 803 803 803 803 802 802 802 801 801 801 801 800 800 800 799 799 799 798 798 798 797 797 796 796 796 795 794 794 793 792 791 791 791 790 790 789 789 788 788 788
785 786 787 788 789 790 791 792 793 794 795 796 796 797 798 799 800 801 801 802 802 803 803 803 803 803 803 802 802 802 802 801 801 801 801 800 800 800 799 799 798 798 797 797 797 797 796 796 796 795 795 794 794 794 793 792 791 791 790 789 789 788 788 787 787 786 786 786 786
785 786 787 788 789 790 791 792 793 794 795 796 796 797 798 799 800 801 801 801 802 802 802 802 802 802 801 801 801 801 801 800 800 800 799 799 798 798 797 797 796 796 796 795 795 795 794 794 793 793 793 792 792 791 791 790 789 789 788 787 786 786 786 785 785 784 784 783 783
786 787 788 789 790 791 791 792 793 794 795 796 796 797 798 799 799 800 800 801 801 801 801 801 801 801 800 800 800 799 799 799 798 798 798 797 797 796 796 795 794 794 794 793 793 792 792 792 791 791 791 791 790 789 789 788 787 786 786 785 784 784 783 783 782 781 781 781 781
786 787 788 789 790 791 792 792 793 794 795 796 796 797 798 798 799 799 800 800 800 800 800 799 799 799 799 798 798 798 797 797 797 796 796 796 795 795 794 793 792 792 792 791 791 791 790 790 789 789 789 789 788 787 786 786 785 784 783 783 782 781 781 780 780 779 779 778 778
787 788 789 790 791 791 792 793 793 794 795 796 796 797 798 798 799 799 799 799 799 799 798 798 798 797 797 797 796 796 796 796 795 795 794 794 793 793 792 791 790 790 790 790 789 789 788 788 787 787 787 786 786 785 784 784 783 782 781 781 780 779 779 778 777 777 776 776 775
787 788 789 790 791 792 792 793 794 794 795 796 796 797 797 798 798 798 798 798 798 797 797 797 796 796 796 795 795 794 794 794 793 793 792 791 791 791 790 789 788 787 787 787 787 786 786 786 785 785 785 784 784 783 782 781 781 780 779 778 777 777 776 776 775 774 774 773 773
788 789 790 791 791 792 793 794 794 795 796 796 797 797 797 797 797 797 797 797 797 796 796 796 795 795 795 794 794 793 792 792 791 791 791 790 789 789 788 787 786 785 785 785 785 784 784 783 783 783 782 782 781 781 780 779 779 778 777 776 776 775 774 774 773 772 771 771 771
789 790 791 792 792 793 794 794 795 795 796 796 796 796 796 796 796 796 796 796 796 795 795 794 794 794 793 793 792 791 791 790 790 789 789 788 787 786 786 785 784 783 782 782 782 781 781 781 781 780 780 780 779 779 778 777 776 776 775 774 774 773 772 771 771 770 769 769 768
790 791 791 792 793 793 794 795 795 795 796 796 796 796 796 796 796 795 795 795 794 794 794 793 792 792 792 791 791 790 789 788 787 787 786 786 785 784 784 783 781 781 780 780 779 779 779 778 778 778 778 777 777 776 776 775 774 773 773 772 772 771 770 769 769 768 767 767 766
Wind_Speed
19 18 17 18 19 20 20 19 19 19 20 20 20 20 21 21 20 20 20 21 22 22 22 22 21 20 19 18 17 15 13 12 12 12 12 11 12 11 11 10 10 10 10 10 10 9 9 8 8 8 9 9 9 8 8 8 9 8 8 8 8 8 8 8 9 9 9 9 10
18 18 17 18 19 20 20 19 19 20 20 21 21 21 21 21 21 20 20 21 22 22 21 21 21 20 19 18 16 15 13 13 13 12 12 12 12 12 12 11 11 11 11 10 10 9 9 8 8 8 9 9 9 8 8 8 9 9 9 8 8 8 8 9 9 9 9 9 9
18 17 16 17 19 20 21 20 20 20 21 21 22 22 22 22 21 21 21 21 22 22 21 21 21 20 20 18 16 15 14 13 13 13 13 13 13 13 12 12 12 11 11 11 10 10 9 8 9 9 9 9 8 8 7 7 8 8 8 8 8 8 8 9 9 9 9 9 9
17 16 16 17 18 20 21 21 20 20 21 21 22 22 22 22 21 21 21 21 21 21 22 22 21 20 20 18 17 15 14 14 14 13 13 13 13 13 13 13 12 12 12 12 11 10 9 9 9 10 10 9 8 7 7 8 8 9 9 9 9 9 9 9 9 9 9 9 9
17 16 16 17 18 19 21 21 21 21 21 22 22 22 22 22 21 21 22 21 21 22 22 22 22 21 20 18 17 16 15 14 14 14 14 14 14 14 13 13 13 12 12 12 12 11 10 9 10 10 10 10 10 9 10 9 9 9 9 10 10 10 10 10 9 9 9 9 9
16 16 16 16 17 19 20 21 21 21 21 22 22 22 22 22 22 22 22 22 22 23 23 22 22 21 19 18 17 16 15 15 15 15 14 14 14 14 14 13 13 13 12 12 12 11 11 10 10 11 11 10 10 10 10 10 9 9 10 10 10 9 9 9 9 10 10 10 10
17 16 16 16 17 18 20 20 20 20 21 21 22 22 22 22 22 22 22 23 23 23 22 22 22 21 20 18 17 17 16 16 15 15 15 15 15 15 14 14 14 13 13 12 12 12 12 11 11 11 11 10 10 10 10 10 10 10 10 10 10 10 10 10 11 11 11 12 12
18 17 17 17 18 19 20 21 20 20 20 21 21 22 22 22 22 22 22 22 22 23 23 23 22 21 20 18 18 17 16 16 16 16 16 15 15 15 15 14 14 14 13 13 13 12 12 12 11 11 11 10 10 10 10 10 10 11 11 12 12 11 11 12 12 13 13 13 14
19 19 19 19 20 20 21 21 20 20 20 20 21 21 21 22 22 22 22 22 23 23 23 23 22 21 19 18 17 17 17 16 17 16 16 16 16 15 15 15 14 14 14 14 13 13 12 12 12 12 11 11 11 11 11 11 11 12 13 13 13 12 12 12 12 13 13 14 14
20 21 21 21 21 21 21 21 20 20 20 20 21 21 21 21 22 23 22 23 23 24 23 23 22 20 19 18 18 17 17 17 17 17 17 16 16 16 15 15 15 14 14 14 13 13 12 12 12 12 12 12 11 11 11 12 12 13 14 14 14 13 13 13 13 13 13 14 15
20 21 22 22 22 22 22 21 20 19 19 19 20 20 20 22 23 23 22 23 23 23 23 23 21 20 19 19 18 17 17 17 17 17 17 17 17 16 16 15 15 14 14 13 13 13 13 13 13 13 13 12 12 12 12 13 13 14 14 15 15 15 15 15 14 14 14 14 15
19 20 21 22 23 23 22 21 21 20 19 19 19 19 20 22 23 23 22 22 22 23 22 22 21 20 19 19 18 18 17 17 17 17 17 17 17 16 16 15 15 14 13 13 13 13 14 14 14 14 13 13 13 13 13 14 14 15 15 16 16 16 16 16 15 15 15 15 15
18 19 21 22 23 23 23 22 21 20 20 19 19 19 20 21 22 22 22 22 22 22 21 21 20 20 19 19 18 18 18 18 17 17 17 17 16 16 16 15 15 14 14 14 14 15 15 15 15 15 14 14 14 14 14 14 14 15 15 16 16 16 16 16 16 16 16 15 16
18 19 20 22 23 23 23 23 22 21 20 20 20 20 20 21 21 21 22 22 21 21 21 21 20 20 19 19 19 18 18 18 17 17 17 16 16 16 15 15 15 15 15 15 15 15 16 16 16 16 15 15 15 15 15 15 15 15 16 16 16 16 17 17 17 17 17 17 17
18 19 20 21 22 23 24 23 22 21 21 21 20 20 20 20 20 21 21 21 21 20 20 21 20 20 19 19 18 18 18 18 17 17 17 16 16 15 15 15 15 15 15 15 16 16 16 17 17 17 17 17 17 17 16 16 16 16 17 17 17 18 18 18 18 18 18 18 18
18 19 20 21 22 23 24 23 22 21 21 21 20 20 20 19 20 21 21 21 20 20 20 20 20 20 19 19 18 18 18 17 17 17 17 16 16 15 15 15 15 15 16 16 16 17 17 17 17 17 17 18 18 18 18 17 17 18 18 19 19 20 20 21 20 20 20 19 19
18 18 19 21 22 24 24 23 22 22 21 21 21 20 20 20 20 21 21 21 20 20 20 20 20 20 20 19 19 18 18 18 17 17 17 16 16 15 15 15 15 15 16 17 17 17 17 17 17 17 17 18 18 19 19 19 19 19 20 20 21 22 22 22 22 21 20 19 19
18 18 20 21 23 24 24 24 23 22 21 21 21 21 20 20 21 21 21 21 20 20 20 20 20 20 20 20 19 19 18 18 18 17 17 16 16 15 15 15 15 15 16 17 18 19 18 18 17 16 17 17 18 19 20 20 20 21 21 21 22 22 23 23 22 22 20 19 19
18 19 20 22 23 24 24 24 23 22 21 21 21 21 21 21 22 22 22 21 20 20 20 19 20 20 20 20 19 19 18 18 17 17 17 16 16 16 15 16 15 16 16 18 19 20 20 19 18 17 17 17 18 19 20 21 21 21 22 22 22 23 23 23 23 23 22 22 21
19 19 20 22 23 23 23 23 22 21 21 20 20 21 21 22 22 22 21 21 21 20 20 19 19 19 19 19 19 18 18 17 17 16 16 16 16 16 16 17 17 17 18 19 20 21 21 20 19 18 18 18 19 20 21 21 22 22 22 22 23 23 24 24 24 24 24 24 23
19 20 21 21 22 22 22 22 21 20 19 19 20 21 22 22 22 22 21 21 21 20 20 19 19 18 18 18 17 17 16 16 16 16 16 16 16 17 17 18 18 18 19 20 21 22 22 21 20 19 19 20 20 21 22 22 22 23 23 23 24 24 24 24 25 25 25 24 24
19 20 20 21 21 21 21 20 20 19 19 19 20 21 22 22 21 21 21 21 21 20 20 19 19 18 17 17 16 16 15 15 15 15 15 16 16 17 18 19 19 20 20 21 22 23 22 22 21 20 20 21 21 22 22 23 23 23 24 24 24 25 25 25 25 25 25 25 25
18 19 19 20 20 20 20 19 19 19 19 20 20 21 21 21 20 20 20 20 20 20 19 19 18 17 17 16 15 15 15 15 15 16 16 16 17 18 18 19 20 20 21 22 23 23 23 22 22 21 21 21 22 22 23 23 24 24 25 25 25 26 26 26 26 26 26 26 26
18 19 19 19 19 19 19 19 19 20 20 20 20 20 20 20 20 20 20 20 20 19 19 18 17 16 16 15 15 15 15 15 15 16 16 17 18 18 19 20 20 21 22 23 23 24 23 23 22 22 22 22 22 22 23 23 24 24 25 25 25 26 26 25 25 25 25 25 26
18 18 19 19 19 19 19 20 20 20 20 20 20 20 19 19 19 19 19 19 19 18 18 17 16 15 15 15 15 15 15 15 16 16 17 18 18 19 19 20 20 21 22 23 23 23 23 22 22 22 22 22 22 22 23 22 22 22 22 22 22 23 23 24 24 24 24 25 25
17 18 19 19 19 20 20 20 21 20 20 19 19 19 19 19 19 19 19 18 18 17 16 16 15 15 15 15 15 15 16 16 17 17 18 18 18 19 19 19 20 21 22 23 23 23 22 22 21 21 21 22 22 22 20 19 19 19 19 20 20 21 21 22 22 22 22 22 23
17 18 19 19 20 20 21 21 20 20 19 19 19 19 19 19 18 18 18 17 16 16 15 15 15 15 15 15 15 16 17 17 18 19 19 19 19 19 19 19 20 21 22 23 23 23 23 22 22 21 21 21 21 21 19 18 18 18 19 20 20 21 21 22 22 22 22 22 22
17 18 19 19 20 20 20 20 19 19 18 18 19 19 18 18 18 17 17 16 15 15 15 14 15 15 15 16 16 17 17 18 19 19 20 20 20 21 21 21 21 22 22 23 24 24 24 23 23 22 22 21 21 20 19 19 18 18 19 19 20 20 21 22 22 22 21 21 21
17 18 18 19 19 19 19 19 18 18 17 18 18 18 18 18 17 16 15 15 14 14 14 14 15 15 15 16 17 17 18 18 19 19 20 20 21 21 22 22 22 23 23 24 24 24 24 24 24 23 23 22 21 20 19 18 18 18 19 19 19 19 20 20 21 21 21 20 20
16 17 17 18 18 18 17 17 17 17 16 17 17 17 17 17 16 15 15 14 13 13 13 14 14 15 16 16 17 17 18 18 19 19 20 20 21 22 22 23 23 23 24 24 24 25 25 25 25 24 23 22 21 20 20 19 19 19 19 19 19 20 20 20 21 21 21 21 21
15 16 16 16 16 16 16 16 15 15 16 16 16 17 17 16 15 15 14 13 13 13 13 14 14 15 16 16 17 17 18 18 19 19 20 21 22 22 23 23 23 24 24 25 25 25 26 26 25 25 24 23 22 21 20 20 20 20 20 20 21 21 21 21 22 22 22 22 22
14 14 15 14 14 14 14 15 15 15 15 15 15 15 15 15 14 14 13 12 12 12 13 13 14 15 16 17 17 18 18 19 19 20 21 21 22 23 23 23 24 24 25 25 25 26 26 26 25 24 24 23 22 21 20 20 21 21 21 22 22 22 23 23 23 23 23 23 23
12 13 13 13 13 13 14 14 14 14 14 14 14 14 14 14 13 13 12 12 12 12 13 14 15 16 17 18 18 18 18 19 20 20 21 22 22 22 23 23 23 24 24 24 24 24 24 24 24 24 23 22 21 20 20 20 21 21 21 22 22 23 23 24 24 24 24 24 24
11 12 12 12 12 13 13 13 13 13 13 13 13 13 13 13 12 12 12 12 13 13 14 15 16 17 17 18 18 18 19 19 20 20 21 21 21 22 22 23 23 23 23 23 23 23 23 23 23 23 22 22 21 20 20 20 20 21 21 22 22 23 23 24 24 25 25 25 25
10 11 11 11 12 12 12 13 13 13 13 12 12 12 12 12 12 12 12 12 13 14 15 16 17 18 18 19 20 20 20 21 21 21 21 21 21 21 22 22 23 23 23 22 23 23 23 23 23 23 22 21 20 19 19 20 21 21 22 22 23 23 23 24 24 25 26 26 26
10 11 11 11 11 11 12 12 12 12 12 11 11 11 11 11 11 11 12 13 14 15 16 17 18 19 20 20 21 21 21 22 22 22 21 21 21 21 21 22 23 23 22 22 22 22 23 23 23 23 22 21 20 19 19 19 20 20 21 22 22 23 23 23 24 25 25 26 27
10 10 10 10 10 11 11 11 11 11 10 10 9 9 9 10 11 12 13 14 15 16 17 18 19 20 20 21 21 21 21 22 22 21 21 21 21 21 21 22 22 22 22 22 22 22 22 23 23 22 22 21 20 19 19 19 20 20 20 21 21 22 22 22 23 23 24 25 26
9 10 10 9 9 10 10 10 9 9 8 8 8 8 9 10 11 13 14 15 16 17 18 18 19 19 19 20 20 20 20 20 20 20 20 20 21 21 21 22 23 23 23 22 23 23 23 23 23 23 22 21 20 20 19 19 19 20 20 20 21 21 21 21 22 22 23 23 24
9 9 8 8 8 8 7 7 6 6 6 6 7 8 10 12 13 14 16 17 17 18 18 18 18 18 18 18 18 18 19 19 19 19 20 20 21 21 22 22 23 24 24 24 24 24 24 24 24 24 23 22 21 20 20 19 19 20 20 20 20 21 21 21 21 21 22 22 22
8 7 7 6 6 5 5 4 4 5 6 7 9 10 11 12 14 15 16 17 17 18 18 18 18 18 18 17 17 18 18 19 19 20 20 21 21 22 23 23 24 25 25 25 25 25 26 26 26 25 23 22 21 20 20 19 20 20 20 20 20 20 20 20 20 20 21 21 21
7 7 6 5 4 3 2 3 4 6 8 10 11 12 13 13 14 15 16 16 16 16 16 16 17 17 17 17 17 18 19 20 20 21 21 22 22 23 23 24 24 25 25 25 25 26 26 26 26 25 24 22 21 20 19 19 19 20 20 21 20 20 20 20 20 20 20 20 21
Wind_Direction
198 198 197 197 197 197 198 198 198 197 196 194 193 193 195 195 197 199 202 203 204 204 205 206 207 208 210 213 215 216 218 223 226 226 226 227 230 234 238 240 241 242 243 246 253 258 264 269 273 281 288 294 298 298 294 291 290 292 292 290 286 283 280 278 277 276 276 274 273
198 198 197 196 197 197 197 196 196 196 196 195 195 196 197 198 199 201 202 203 204 204 204 205 206 208 210 213 215 215 217 220 222 223 224 225 230 235 238 239 241 241 243 245 249 254 260 265 271 278 285 291 296 295 289 286 286 288 288 285 281 278 277 275 274 274 274 273 272
198 197 196 195 196 196 196 195 196 196 196 196 197 199 201 202 202 202 203 204 204 203 203 203 205 208 210 212 213 214 216 218 220 221 221 223 229 233 236 238 239 240 242 245 249 252 257 262 268 274 280 286 290 288 282 277 277 280 281 279 278 275 274 273 273 273 272 270 269
198 197 196 196 197 197 197 197 197 196 197 199 200 202 204 204 204 204 204 203 202 202 202 203 204 207 209 210 211 213 216 218 220 220 221 223 227 232 234 236 237 239 242 245 249 252 256 260 266 273 278 282 279 273 268 269 271 273 275 276 276 274 272 271 270 269 268 266 266
198 198 198 199 199 199 200 200 199 200 201 202 204 205 206 205 204 204 203 201 200 202 204 205 205 207 208 210 211 213 215 217 218 219 220 222 226 230 233 235 235 237 242 246 250 253 256 258 264 271 276 278 274 270 268 270 270 270 271 273 274 274 272 269 267 266 264 264 265
199 200 200 200 200 201 202 203 203 204 205 207 207 207 207 205 204 203 202 201 202 203 205 205 206 207 208 208 210 212 214 216 218 219 219 221 225 228 230 232 233 237 241 246 250 254 257 258 261 267 272 274 274 274 274 272 270 269 270 271 271 270 268 264 263 262 262 263 265
200 201 202 202 201 202 204 206 206 207 209 210 210 209 207 206 204 204 203 202 203 203 204 205 205 206 207 208 209 211 214 216 218 219 219 220 223 226 228 230 232 235 239 244 249 254 258 260 261 264 268 269 269 270 270 268 267 267 268 270 269 268 265 261 261 261 261 263 265
203 204 204 205 204 206 208 209 208 209 210 211 211 210 208 207 205 204 203 203 203 203 204 205 206 207 209 209 210 212 215 217 217 217 218 219 221 225 228 230 231 234 238 243 247 252 256 259 261 262 263 263 263 263 264 264 264 265 267 269 270 269 266 264 262 262 263 265 266
206 207 208 208 209 210 211 212 211 210 211 212 213 211 208 206 204 203 202 203 204 205 206 206 207 209 210 211 212 214 216 217 217 216 217 218 220 223 226 229 231 234 238 244 248 250 253 256 258 260 260 259 259 260 261 262 262 264 266 268 270 269 267 264 263 263 263 265 266
208 210 210 211 212 212 213 213 212 211 212 213 213 210 207 205 204 203 203 205 207 207 207 207 207 208 210 211 212 214 216 217 217 216 217 218 220 222 225 228 230 233 237 243 247 249 250 251 254 256 258 259 259 259 261 261 262 264 266 268 269 268 267 265 263 262 262 263 264
209 211 212 212 213 213 212 211 210 210 211 212 210 207 205 205 204 203 204 206 207 208 208 209 208 208 209 211 212 214 216 217 217 217 217 219 220 222 225 229 232 234 237 241 246 247 247 248 251 254 256 258 258 258 259 260 262 264 265 267 268 268 268 267 265 263 262 262 263
210 211 212 213 213 212 210 209 208 208 209 209 207 205 204 205 205 204 205 207 208 209 209 210 210 209 210 211 212 214 216 216 217 217 218 220 222 224 226 230 233 235 236 239 242 245 246 247 250 253 256 256 257 257 258 260 262 264 265 266 267 267 267 267 266 265 263 263 263
209 210 211 212 212 211 209 208 208 208 208 208 205 204 204 205 205 205 205 207 208 209 209 210 210 210 210 211 212 214 215 216 217 218 219 221 223 225 227 230 233 234 235 236 239 243 246 249 252 254 256 258 257 258 259 260 261 263 264 265 265 265 265 266 266 265 264 263 263
208 209 210 210 211 210 209 208 208 209 208 207 205 204 204 205 205 205 205 207 207 208 209 210 210 210 211 212 213 215 216 217 218 219 220 222 224 226 227 230 233 235 235 237 239 242 246 249 252 255 257 259 260 261 261 261 261 261 262 263 263 263 264 265 265 265 264 263 263
207 208 209 210 210 209 209 208 209 209 208 206 205 204 203 203 203 204 205 205 206 208 210 210 210 210 212 213 214 216 217 219 219 220 221 223 225 227 229 232 234 237 238 240 241 244 247 249 253 256 258 261 263 264 264 263 262 262 261 262 262 263 264 264 264 264 264 264 264
206 207 208 209 209 209 209 209 209 209 208 206 205 203 202 201 202 203 203 203 205 208 210 211 211 210 211 212 214 216 218 219 221 222 223 224 226 228 231 234 236 238 241 243 244 246 248 251 254 257 261 264 266 267 267 267 265 264 263 263 263 263 264 266 266 266 266 266 265
205 205 206 208 209 210 210 210 210 209 207 205 204 202 201 200 202 203 203 203 204 207 210 212 212 211 211 212 214 216 218 220 222 224 225 227 228 230 233 236 238 240 242 245 246 247 249 251 255 259 263 266 269 270 271 271 269 267 266 265 265 265 267 268 268 268 267 266 264
205 205 206 208 210 211 212 211 210 208 207 205 203 202 201 201 202 203 204 204 205 208 211 212 213 213 213 214 216 218 220 222 225 228 230 231 232 233 235 238 239 240 243 246 249 250 252 254 257 260 263 266 269 271 273 274 273 272 270 269 268 268 269 270 270 268 266 264 262
204 205 206 208 211 212 212 211 210 208 206 204 202 202 202 204 205 205 205 204 206 209 211 212 213 214 217 218 220 223 225 227 229 233 235 237 237 237 238 239 240 241 243 246 251 254 256 258 261 262 263 264 266 269 272 274 274 274 273 271 271 271 271 271 271 270 269 267 265
204 205 207 209 211 212 212 211 209 207 205 203 203 203 204 206 207 207 206 205 207 209 211 213 214 216 219 222 225 227 230 232 234 237 240 241 242 241 241 241 242 243 245 249 254 258 261 263 265 266 267 267 267 268 270 271 272 272 272 272 272 272 272 272 273 272 271 270 268
205 206 208 210 211 211 210 209 207 205 203 202 203 204 206 208 208 208 207 207 208 209 212 214 217 219 221 225 228 231 234 236 238 240 242 244 245 246 246 247 247 248 250 253 258 261 264 267 270 272 274 274 273 273 272 271 271 271 271 271 271 272 272 273 273 272 272 271 270
206 208 209 210 210 210 209 207 205 202 201 202 204 205 207 208 208 208 209 210 210 211 213 216 220 223 225 229 231 235 238 240 242 244 245 245 247 249 251 252 252 253 254 257 261 264 268 271 275 278 280 280 280 278 276 273 271 270 270 270 270 271 272 273 273 272 271 270 270
206 207 209 210 210 208 207 204 202 200 201 202 204 206 207 207 207 208 209 211 213 214 216 219 222 226 230 233 236 239 241 243 246 248 248 248 249 251 252 254 256 257 258 260 263 267 270 275 279 282 283 283 282 280 277 274 272 270 270 270 271 271 272 273 273 273 272 271 270
206 207 208 209 207 205 203 200 199 199 200 202 204 205 206 206 206 208 210 213 215 217 219 222 226 229 233 236 239 241 243 245 247 249 251 252 252 253 254 256 257 259 261 263 266 269 273 277 281 284 285 285 283 280 277 274 272 270 270 270 271 272 273 274 274 273 272 271 270
206 207 207 207 204 201 199 198 198 198 199 201 203 204 205 206 207 209 211 215 218 221 223 226 229 232 235 238 241 243 245 246 248 250 252 254 255 255 256 257 258 261 264 266 268 271 275 278 281 284 286 286 284 281 278 274 271 269 268 267 267 268 269 270 270 270 270 271 271
206 206 205 204 201 198 197 197 198 198 199 201 202 203 204 206 208 211 214 217 221 224 227 229 232 234 237 240 242 245 247 249 251 252 253 254 255 256 256 257 259 262 265 267 269 272 275 279 281 282 283 282 281 279 275 271 267 265 263 261 260 261 262 262 262 263 264 266 268
204 203 202 201 198 196 197 198 198 197 199 200 202 203 204 207 209 213 216 219 223 226 229 231 233 236 239 242 245 247 250 253 255 256 256 256 256 256 256 257 258 260 263 267 269 272 276 279 280 280 278 276 274 273 270 267 264 262 260 259 259 258 258 259 260 261 262 262 263
201 200 199 198 196 196 197 197 196 196 198 200 201 203 205 207 210 213 217 221 224 227 230 232 235 238 242 245 249 252 256 259 260 260 260 260 259 258 257 257 258 259 262 265 269 272 276 279 280 279 276 271 268 266 265 263 262 262 262 261 260 259 259 259 260 261 262 262 262
199 198 197 195 194 195 195 195 194 195 197 199 201 203 205 207 211 214 218 221 224 226 229 233 237 242 246 250 254 258 261 262 263 262 262 261 261 260 259 259 260 261 263 266 269 273 276 279 281 281 277 272 266 262 261 261 261 262 263 262 262 261 261 261 261 261 262 263 263
196 196 194 193 193 193 193 192 192 193 195 197 200 202 205 208 211 215 219 221 222 225 230 236 242 247 252 256 260 263 263 264 264 264 262 261 261 261 261 262 262 264 266 268 271 274 277 280 281 280 278 273 267 262 260 261 261 262 263 263 263 262 263 263 263 264 264 265 265
195 195 194 192 191 191 190 189 189 190 192 195 197 200 204 208 212 217 220 222 224 229 236 243 249 254 259 263 264 264 264 265 265 263 262 261 261 261 263 264 265 266 268 271 273 276 278 280 280 279 277 273 267 262 259 260 261 262 262 263 263 263 263 264 265 265 265 265 266
194 194 192 189 188 187 186 185 185 186 189 191 195 199 204 209 214 218 222 225 229 235 241 247 253 258 262 265 265 265 266 265 264 263 262 262 262 263 265 266 267 268 270 272 274 276 278 279 279 278 276 272 267 263 260 260 261 262 262 263 263 263 263 264 264 265 265 265 265
192 190 187 184 182 182 181 180 180 182 185 189 194 199 205 210 216 220 225 231 236 242 247 252 256 260 263 264 265 266 266 265 265 264 263 263 263 264 266 267 268 270 271 272 273 275 276 277 277 276 275 272 267 263 261 261 262 263 263 263 263 263 263 263 263 264 264 264 265
185 183 180 177 176 175 175 175 177 180 183 187 194 202 208 214 219 226 233 240 247 253 257 260 262 264 266 267 267 266 266 266 265 265 264 264 264 265 266 267 268 270 271 272 272 272 273 274 274 274 273 271 267 264 262 262 263 263 263 264 264 264 264 264 264 264 264 264 264
175 172 170 169 169 169 171 173 176 180 184 189 197 206 214 222 229 237 245 253 259 264 267 269 270 270 270 270 270 268 267 267 266 266 266 265 266 266 266 267 268 270 271 271 271 271 271 272 272 272 271 269 266 264 263 263 264 264 264 265 265 266 266 266 265 265 265 265 264
166 165 163 163 164 166 169 174 179 184 189 195 204 213 224 234 244 252 258 263 267 269 271 273 274 274 274 273 273 271 270 269 269 268 268 267 266 266 266 267 268 269 270 269 269 269 269 270 271 271 270 268 265 263 263 264 265 266 266 266 266 267 267 267 267 267 267 266 265
161 160 160 159 160 164 171 177 183 188 195 204 215 228 240 251 259 265 267 269 271 273 275 277 277 277 277 276 276 275 274 273 272 270 269 268 266 266 266 268 269 269 269 269 269 268 268 268 269 268 267 265 264 263 263 265 266 267 267 267 268 268 268 268 269 268 268 267 266
156 156 155 155 158 164 172 181 187 195 206 220 234 247 258 265 268 270 272 274 275 277 279 280 279 279 279 279 278 278 276 273 271 269 267 267 267 266 267 268 270 270 270 270 269 269 268 268 268 267 265 263 263 264 265 266 266 267 268 269 269 270 270 270 270 270 269 267 266
148 149 149 150 155 163 173 184 196 211 227 242 253 262 268 272 274 275 277 279 281 282 282 281 280 279 279 278 276 275 273 271 269 267 267 267 268 268 268 269 270 271 271 271 270 270 269 269 268 267 265 263 262 263 264 265 266 267 268 269 271 272 272 271 271 271 270 269 267
137 136 136 138 145 157 172 193 218 241 255 263 267 270 273 276 279 281 284 286 287 287 286 284 282 280 278 276 273 272 271 271 270 269 269 269 270 270 270 270 270 271 271 271 270 270 270 270 269 268 265 262 261 261 263 264 266 267 268 269 271 273 274 273 272 272 271 271 269
126 126 127 130 142 163 195 229 252 264 270 275 277 279 280 282 284 286 288 289 289 287 285 283 281 279 277 274 273 273 273 273 273 272 271 271 272 271 271 270 271 271 271 271 271 270 270 270 269 268 265 261 260 260 261 263 265 266 268 269 271 273 274 275 275 273 272 272 271